When you browse on this site, cookies collect data to enhance your experience and personalize the content and advertising you see.
Visit our Privacy Policy to learn more. By continuing to use the site, you agree to this use of cookies and data.
  • en Suisse
  • Liste des pays
  • À 7 jours
  • Température de l'eau
  • Carte météo
  • Widgets météo
  • user-avatar
    Se connecter

    Météo par heure à Worcester

    Ce jour, 18 Septembre, Mercredi

    Heure Température Précipitation Vent Pression Humidité
    00:00 +9°C° 0 mm 1 m/s 767 mmHg 90%
    01:00 +9°C° 0 mm 1 m/s 767 mmHg 90%
    02:00 +9°C° 0 mm 1 m/s 767 mmHg 90%
    03:00 +8°C° 0 mm 0 m/s 767 mmHg 91%
    04:00 +7°C° 0 mm 0 m/s 767 mmHg 90%
    05:00 +7°C° 0 mm 0 m/s 767 mmHg 90%
    06:00 +7°C° 0 mm 0 m/s 768 mmHg 88%
    07:00 +9°C° 0 mm 0 m/s 768 mmHg 82%
    08:00 +11°C° 0 mm 0 m/s 768 mmHg 77%
    09:00 +13°C° 0 mm 0 m/s 768 mmHg 71%
    10:00 +14°C° 0 mm 0 m/s 768 mmHg 66%
    11:00 +16°C° 0 mm 1 m/s 768 mmHg 61%
    12:00 +19°C° 0 mm 1 m/s 768 mmHg 56%
    13:00 +19°C° 0 mm 1 m/s 768 mmHg 55%
    14:00 +20°C° 0 mm 1 m/s 768 mmHg 54%
    15:00 +19°C° 0 mm 2 m/s 767 mmHg 53%
    16:00 +18°C° 0 mm 2 m/s 767 mmHg 60%
    17:00 +16°C° 0 mm 2 m/s 767 mmHg 66%
    18:00 +15°C° 0 mm 2 m/s 767 mmHg 73%
    19:00 +14°C° 0 mm 2 m/s 768 mmHg 75%
    20:00 +13°C° 0 mm 2 m/s 768 mmHg 78%
    21:00 +12°C° 0 mm 2 m/s 768 mmHg 80%
    22:00 +12°C° 0 mm 1 m/s 768 mmHg 82%
    23:00 +11°C° 0 mm 1 m/s 768 mmHg 83%

    Demain, 19 Septembre, Jeudi

    Heure Température Précipitation Vent Pression Humidité
    00:00 +11°C° 0 mm 1 m/s 768 mmHg 84%
    01:00 +10°C° 0 mm 1 m/s 768 mmHg 86%
    02:00 +10°C° 0 mm 1 m/s 768 mmHg 87%
    03:00 +10°C° 0 mm 1 m/s 768 mmHg 89%
    04:00 +10°C° 0 mm 1 m/s 768 mmHg 89%
    05:00 +10°C° 0 mm 1 m/s 768 mmHg 89%
    06:00 +10°C° 0 mm 1 m/s 768 mmHg 90%
    07:00 +11°C° 0 mm 1 m/s 768 mmHg 84%
    08:00 +13°C° 0 mm 1 m/s 769 mmHg 79%
    09:00 +15°C° 0 mm 1 m/s 769 mmHg 73%
    10:00 +16°C° 0 mm 1 m/s 769 mmHg 68%
    11:00 +19°C° 0 mm 1 m/s 769 mmHg 63%
    12:00 +20°C° 0 mm 1 m/s 769 mmHg 58%
    13:00 +21°C° 0 mm 1 m/s 768 mmHg 57%
    14:00 +21°C° 0 mm 1 m/s 768 mmHg 55%
    15:00 +22°C° 0 mm 1 m/s 768 mmHg 54%
    16:00 +20°C° 0 mm 1 m/s 768 mmHg 60%
    17:00 +19°C° 0 mm 1 m/s 768 mmHg 65%
    18:00 +16°C° 0 mm 1 m/s 767 mmHg 71%
    19:00 +16°C° 0 mm 1 m/s 767 mmHg 74%
    20:00 +15°C° 0 mm 1 m/s 768 mmHg 77%
    21:00 +14°C° 0 mm 1 m/s 768 mmHg 80%
    22:00 +14°C° 0 mm 1 m/s 768 mmHg 82%
    23:00 +13°C° 0 mm 1 m/s 767 mmHg 83%

    Après-demain, 20 Septembre, Vendredi

    Heure Température Précipitation Vent Pression Humidité
    00:00 +12°C° 0 mm 1 m/s 767 mmHg 85%
    01:00 +12°C° 0 mm 1 m/s 767 mmHg 86%
    02:00 +12°C° 0 mm 1 m/s 767 mmHg 87%
    03:00 +11°C° 0 mm 1 m/s 766 mmHg 88%
    04:00 +11°C° 0 mm 1 m/s 766 mmHg 89%
    05:00 +10°C° 0 mm 1 m/s 766 mmHg 90%
    06:00 +10°C° 0 mm 1 m/s 765 mmHg 91%
    07:00 +12°C° 0 mm 2 m/s 765 mmHg 86%
    08:00 +13°C° 0 mm 3 m/s 765 mmHg 80%
    09:00 +14°C° 0 mm 4 m/s 765 mmHg 75%
    10:00 +17°C° 0 mm 4 m/s 764 mmHg 69%
    11:00 +18°C° 0 mm 4 m/s 764 mmHg 63%
    12:00 +19°C° 0 mm 5 m/s 763 mmHg 57%
    13:00 +20°C° 0 mm 5 m/s 763 mmHg 55%
    14:00 +20°C° 0 mm 5 m/s 762 mmHg 53%
    15:00 +20°C° 0 mm 6 m/s 761 mmHg 51%
    16:00 +19°C° 0 mm 5 m/s 760 mmHg 55%
    17:00 +16°C° 0 mm 5 m/s 760 mmHg 59%
    18:00 +15°C° 0 mm 4 m/s 759 mmHg 62%
    19:00 +14°C° 0 mm 5 m/s 759 mmHg 64%
    20:00 +13°C° 0 mm 5 m/s 759 mmHg 67%
    21:00 +12°C° 0 mm 5 m/s 759 mmHg 69%
    22:00 +12°C° 0 mm 5 m/s 758 mmHg 71%
    23:00 +12°C° 0 mm 4 m/s 758 mmHg 73%

    21 Septembre, Samedi

    Heure Température Précipitation Vent Pression Humidité
    00:00 +12°C° 0 mm 4 m/s 757 mmHg 75%
    01:00 +11°C° 0 mm 4 m/s 757 mmHg 74%
    02:00 +11°C° 0 mm 4 m/s 756 mmHg 73%
    03:00 +11°C° 0 mm 4 m/s 756 mmHg 72%
    04:00 +11°C° 0 mm 4 m/s 755 mmHg 72%
    05:00 +10°C° 0 mm 4 m/s 754 mmHg 72%
    06:00 +10°C° 0 mm 4 m/s 754 mmHg 72%
    07:00 +12°C° 0 mm 4 m/s 753 mmHg 69%
    08:00 +13°C° 0 mm 4 m/s 753 mmHg 66%
    09:00 +15°C° 0 mm 5 m/s 753 mmHg 63%
    10:00 +17°C° 0 mm 5 m/s 752 mmHg 62%
    11:00 +19°C° 0 mm 5 m/s 752 mmHg 60%
    12:00 +21°C° 0 mm 6 m/s 751 mmHg 58%
    13:00 +22°C° 0 mm 6 m/s 751 mmHg 59%
    14:00 +23°C° 0 mm 6 m/s 750 mmHg 59%
    15:00 +24°C° 0 mm 6 m/s 750 mmHg 60%
    16:00 +23°C° 0 mm 5 m/s 749 mmHg 66%
    17:00 +21°C° 0 mm 5 m/s 749 mmHg 71%
    18:00 +20°C° 0 mm 4 m/s 749 mmHg 77%
    19:00 +19°C° 0.1 mm 4 m/s 749 mmHg 77%
    20:00 +19°C° 0.1 mm 4 m/s 748 mmHg 78%
    21:00 +19°C° 0.1 mm 4 m/s 748 mmHg 79%
    22:00 +18°C° 0.2 mm 4 m/s 748 mmHg 82%
    23:00 +18°C° 0.2 mm 3 m/s 748 mmHg 85%

    22 Septembre, Dimanche

    Heure Température Précipitation Vent Pression Humidité
    00:00 +18°C° 0.2 mm 3 m/s 747 mmHg 89%
    01:00 +17°C° 0.1 mm 3 m/s 747 mmHg 91%
    02:00 +17°C° 0.1 mm 3 m/s 747 mmHg 93%
    03:00 +17°C° 0.1 mm 3 m/s 747 mmHg 95%
    04:00 +17°C° 0.1 mm 3 m/s 747 mmHg 95%
    05:00 +17°C° 0.1 mm 3 m/s 747 mmHg 94%
    06:00 +17°C° 0.1 mm 4 m/s 747 mmHg 93%
    07:00 +17°C° 0.1 mm 4 m/s 747 mmHg 90%
    08:00 +16°C° 0.1 mm 5 m/s 748 mmHg 86%
    09:00 +16°C° 0.1 mm 5 m/s 748 mmHg 82%
    10:00 +17°C° 0.1 mm 6 m/s 748 mmHg 75%
    11:00 +19°C° 0.1 mm 6 m/s 748 mmHg 68%
    12:00 +20°C° 0.1 mm 6 m/s 748 mmHg 61%
    13:00 +20°C° 0.2 mm 6 m/s 748 mmHg 63%
    14:00 +19°C° 0.2 mm 6 m/s 748 mmHg 65%
    15:00 +19°C° 0.2 mm 6 m/s 748 mmHg 67%
    16:00 +17°C° 0.1 mm 6 m/s 748 mmHg 71%
    17:00 +15°C° 0.1 mm 6 m/s 749 mmHg 75%
    18:00 +14°C° 0.1 mm 5 m/s 749 mmHg 80%
    19:00 +13°C° 0 mm 5 m/s 750 mmHg 81%
    20:00 +12°C° 0 mm 5 m/s 751 mmHg 83%
    21:00 +10°C° 0 mm 5 m/s 752 mmHg 85%
    22:00 +11°C° 0 mm 4 m/s 752 mmHg 86%
    23:00 +11°C° 0 mm 4 m/s 752 mmHg 88%

    23 Septembre, Lundi

    Heure Température Précipitation Vent Pression Humidité
    00:00 +10°C° 0 mm 3 m/s 752 mmHg 89%
    01:00 +10°C° 0 mm 3 m/s 752 mmHg 90%
    02:00 +10°C° 0 mm 3 m/s 752 mmHg 91%
    03:00 +10°C° 0 mm 3 m/s 752 mmHg 92%
    04:00 +10°C° 0 mm 3 m/s 752 mmHg 92%
    05:00 +11°C° 0 mm 3 m/s 752 mmHg 92%
    06:00 +11°C° 0 mm 3 m/s 752 mmHg 91%
    07:00 +12°C° 0.1 mm 4 m/s 752 mmHg 91%
    08:00 +12°C° 0.1 mm 4 m/s 752 mmHg 90%
    09:00 +13°C° 0.1 mm 4 m/s 751 mmHg 89%
    10:00 +14°C° 0.6 mm 5 m/s 751 mmHg 90%
    11:00 +14°C° 0.6 mm 6 m/s 750 mmHg 92%
    12:00 +15°C° 0.6 mm 7 m/s 749 mmHg 93%
    13:00 +16°C° 0.5 mm 6 m/s 749 mmHg 93%
    14:00 +16°C° 0.5 mm 6 m/s 748 mmHg 93%
    15:00 +17°C° 0.5 mm 6 m/s 748 mmHg 93%
    16:00 +17°C° 0.4 mm 6 m/s 748 mmHg 93%
    17:00 +17°C° 0.4 mm 6 m/s 748 mmHg 93%
    18:00 +19°C° 0.4 mm 6 m/s 748 mmHg 93%
    19:00 +17°C° 0.1 mm 6 m/s 749 mmHg 93%
    20:00 +17°C° 0.1 mm 5 m/s 749 mmHg 93%
    21:00 +17°C° 0.1 mm 5 m/s 750 mmHg 93%
    22:00 +17°C° 0 mm 5 m/s 750 mmHg 93%
    23:00 +17°C° 0 mm 4 m/s 750 mmHg 94%
    Voir plus